Year,Month,Day,Hour,Minute,Value (Times are PST for temperature in C)
2008,08,26,00,00,11.70
2008,08,26,00,01,11.70
2008,08,26,00,02,11.70
2008,08,26,00,03,11.70
2008,08,26,00,04,11.70
2008,08,26,00,05,11.80
2008,08,26,00,06,11.80
2008,08,26,00,07,11.80
2008,08,26,00,08,11.80
2008,08,26,00,09,11.80
2008,08,26,00,10,11.80
2008,08,26,00,11,11.80
2008,08,26,00,12,11.70
2008,08,26,00,13,11.70
2008,08,26,00,14,11.70
2008,08,26,00,15,11.60
2008,08,26,00,16,11.60
2008,08,26,00,17,11.60
2008,08,26,00,18,11.50
2008,08,26,00,19,11.50
2008,08,26,00,20,11.40
2008,08,26,00,21,11.40
2008,08,26,00,22,11.40
2008,08,26,00,23,11.40
2008,08,26,00,24,11.40
2008,08,26,00,25,11.30
2008,08,26,00,26,11.30
2008,08,26,00,27,11.30
2008,08,26,00,28,11.30
2008,08,26,00,29,11.30
2008,08,26,00,30,11.30
2008,08,26,00,31,11.30
2008,08,26,00,32,11.30
2008,08,26,00,33,11.30
2008,08,26,00,34,11.30
2008,08,26,00,35,11.30
2008,08,26,00,36,11.30
2008,08,26,00,37,11.30
2008,08,26,00,38,11.30
2008,08,26,00,39,11.30
2008,08,26,00,40,11.30
2008,08,26,00,41,11.30
2008,08,26,00,42,11.30
2008,08,26,00,43,11.30
2008,08,26,00,44,11.30
2008,08,26,00,45,11.30
2008,08,26,00,46,11.30
2008,08,26,00,47,11.40
2008,08,26,00,48,11.40
2008,08,26,00,51,11.30
2008,08,26,00,52,11.30
2008,08,26,00,53,11.30
2008,08,26,00,54,11.30
2008,08,26,00,55,11.30
2008,08,26,00,56,11.30
2008,08,26,00,57,11.30
2008,08,26,00,58,11.30
2008,08,26,00,59,11.30
2008,08,26,01,00,11.30
2008,08,26,01,01,11.30
2008,08,26,01,02,11.30
2008,08,26,01,03,11.30
2008,08,26,01,04,11.30
2008,08,26,01,05,11.30
2008,08,26,01,06,11.30
2008,08,26,01,07,11.30
2008,08,26,01,08,11.30
2008,08,26,01,09,11.30
2008,08,26,01,10,11.30
2008,08,26,01,11,11.30
2008,08,26,01,12,11.30
2008,08,26,01,13,11.30
2008,08,26,01,14,11.30
2008,08,26,01,15,11.30
2008,08,26,01,16,11.30
2008,08,26,01,17,11.30
2008,08,26,01,18,11.30
2008,08,26,01,19,11.30
2008,08,26,01,20,11.30
2008,08,26,01,21,11.30
2008,08,26,01,22,11.30
2008,08,26,01,23,11.30
2008,08,26,01,24,11.40
2008,08,26,01,25,11.40
2008,08,26,01,26,11.40
2008,08,26,01,27,11.40
2008,08,26,01,28,11.40
2008,08,26,01,29,11.40
2008,08,26,01,30,11.40
2008,08,26,01,31,11.50
2008,08,26,01,32,11.50
2008,08,26,01,33,11.50
2008,08,26,01,34,11.60
2008,08,26,01,35,11.60
2008,08,26,01,36,11.60
2008,08,26,01,37,11.60
2008,08,26,01,38,11.60
2008,08,26,01,39,11.70
2008,08,26,01,40,11.70
2008,08,26,01,41,11.70
2008,08,26,01,42,11.70
2008,08,26,01,43,11.80
2008,08,26,01,44,11.80
2008,08,26,01,45,11.80
2008,08,26,01,46,11.80
2008,08,26,01,47,11.80
2008,08,26,01,48,11.80
2008,08,26,01,49,11.80
2008,08,26,01,50,11.80
2008,08,26,01,51,11.80
2008,08,26,01,52,11.80
2008,08,26,01,53,11.80
2008,08,26,01,54,11.80
2008,08,26,01,55,11.80
2008,08,26,01,56,11.80
2008,08,26,01,57,11.70
2008,08,26,01,58,11.70
2008,08,26,01,59,11.70
2008,08,26,02,00,11.70
2008,08,26,02,01,11.70
2008,08,26,02,02,11.70
2008,08,26,02,03,11.70
2008,08,26,02,04,11.70
2008,08,26,02,05,11.70
2008,08,26,02,06,11.70
2008,08,26,02,07,11.70
2008,08,26,02,08,11.70
2008,08,26,02,09,11.60
2008,08,26,02,10,11.60
2008,08,26,02,11,11.60
2008,08,26,02,12,11.50
2008,08,26,02,13,11.50
2008,08,26,02,14,11.40
2008,08,26,02,15,11.40
2008,08,26,02,16,11.40
2008,08,26,02,17,11.40
2008,08,26,02,18,11.40
2008,08,26,02,19,11.30
2008,08,26,02,20,11.40
2008,08,26,02,21,11.40
2008,08,26,02,22,11.40
2008,08,26,02,23,11.40
2008,08,26,02,24,11.40
2008,08,26,02,25,11.40
2008,08,26,02,26,11.40
2008,08,26,02,27,11.40
2008,08,26,02,28,11.40
2008,08,26,02,29,11.40
2008,08,26,02,30,11.30
2008,08,26,02,31,11.30
2008,08,26,02,32,11.30
2008,08,26,02,33,11.30
2008,08,26,02,34,11.30
2008,08,26,02,35,11.30
2008,08,26,02,36,11.30
2008,08,26,02,37,11.30
2008,08,26,02,38,11.20
2008,08,26,02,39,11.20
2008,08,26,02,40,11.20
2008,08,26,02,41,11.20
2008,08,26,02,42,11.20
2008,08,26,02,43,11.20
2008,08,26,02,44,11.20
2008,08,26,02,45,11.20
2008,08,26,02,46,11.20
2008,08,26,02,47,11.20
2008,08,26,02,48,11.20
2008,08,26,02,49,11.10
2008,08,26,02,50,11.10
2008,08,26,02,51,11.10
2008,08,26,02,52,11.10
2008,08,26,02,53,11.10
2008,08,26,02,54,11.10
2008,08,26,02,55,11.10
2008,08,26,02,56,11.10
2008,08,26,02,57,11.10
2008,08,26,02,58,11.00
2008,08,26,02,59,11.00
2008,08,26,03,00,11.00
2008,08,26,03,01,11.00
2008,08,26,03,02,10.90
2008,08,26,03,03,10.90
2008,08,26,03,04,10.90
2008,08,26,03,05,10.90
2008,08,26,03,06,10.90
2008,08,26,03,07,10.90
2008,08,26,03,08,10.90
2008,08,26,03,09,10.90
2008,08,26,03,10,10.90
2008,08,26,03,11,10.90
2008,08,26,03,12,10.90
2008,08,26,03,13,10.90
2008,08,26,03,14,10.80
2008,08,26,03,15,10.80
2008,08,26,03,16,10.80
2008,08,26,03,17,10.80
2008,08,26,03,18,10.70
2008,08,26,03,19,10.70
2008,08,26,03,20,10.70
2008,08,26,03,21,10.70
2008,08,26,03,22,10.60
2008,08,26,03,23,10.60
2008,08,26,03,24,10.60
2008,08,26,03,25,10.60
2008,08,26,03,26,10.60
2008,08,26,03,27,10.60
2008,08,26,03,28,10.60
2008,08,26,03,29,10.60
2008,08,26,03,30,10.60
2008,08,26,03,31,10.60
2008,08,26,03,32,10.60
2008,08,26,03,33,10.60
2008,08,26,03,34,10.60
2008,08,26,03,35,10.60
2008,08,26,03,36,10.60
2008,08,26,03,37,10.60
2008,08,26,03,38,10.50
2008,08,26,03,39,10.50
2008,08,26,03,40,10.50
2008,08,26,03,41,10.40
2008,08,26,03,42,10.40
2008,08,26,03,43,10.40
2008,08,26,03,44,10.40
2008,08,26,03,45,10.30
2008,08,26,03,46,10.30
2008,08,26,03,47,10.30
2008,08,26,03,48,10.30
2008,08,26,03,49,10.20
2008,08,26,03,50,10.20
2008,08,26,03,51,10.20
2008,08,26,03,52,10.10
2008,08,26,03,53,10.10
2008,08,26,03,54,10.10
2008,08,26,03,55,10.00
2008,08,26,03,56,10.00
2008,08,26,03,57,10.00
2008,08,26,03,58,9.90
2008,08,26,03,59,9.90
2008,08,26,04,00,9.90
2008,08,26,04,01,9.90
2008,08,26,04,02,9.90
2008,08,26,04,03,9.90
2008,08,26,04,06,9.80
2008,08,26,04,07,9.80
2008,08,26,04,08,9.80
2008,08,26,04,09,9.80
2008,08,26,04,10,9.80
2008,08,26,04,11,9.80
2008,08,26,04,12,9.80
2008,08,26,04,13,9.80
2008,08,26,04,14,9.80
2008,08,26,04,15,9.80
2008,08,26,04,16,9.80
2008,08,26,04,17,9.70
2008,08,26,04,18,9.70
2008,08,26,04,19,9.70
2008,08,26,04,20,9.70
2008,08,26,04,21,9.70
2008,08,26,04,22,9.60
2008,08,26,04,23,9.60
2008,08,26,04,24,9.60
2008,08,26,04,25,9.60
2008,08,26,04,26,9.60
2008,08,26,04,27,9.60
2008,08,26,04,28,9.60
2008,08,26,04,29,9.50
2008,08,26,04,30,9.50
2008,08,26,04,31,9.50
2008,08,26,04,32,9.50
2008,08,26,04,33,9.50
2008,08,26,04,34,9.40
2008,08,26,04,35,9.40
2008,08,26,04,36,9.40
2008,08,26,04,37,9.40
2008,08,26,04,38,9.40
2008,08,26,04,39,9.40
2008,08,26,04,40,9.40
2008,08,26,04,41,9.40
2008,08,26,04,42,9.30
2008,08,26,04,43,9.30
2008,08,26,04,44,9.30
2008,08,26,04,45,9.30
2008,08,26,04,46,9.30
2008,08,26,04,47,9.30
2008,08,26,04,48,9.30
2008,08,26,04,49,9.30
2008,08,26,04,50,9.30
2008,08,26,04,51,9.30
2008,08,26,04,52,9.20
2008,08,26,04,53,9.20
2008,08,26,04,54,9.20
2008,08,26,04,55,9.10
2008,08,26,04,56,9.10
2008,08,26,04,57,9.10
2008,08,26,04,58,9.10
2008,08,26,04,59,9.00
2008,08,26,05,00,8.90
2008,08,26,05,01,8.90
2008,08,26,05,02,8.90
2008,08,26,05,03,8.90
2008,08,26,05,04,8.80
2008,08,26,05,05,8.80
2008,08,26,05,06,8.80
2008,08,26,05,07,8.80
2008,08,26,05,08,8.80
2008,08,26,05,09,8.70
2008,08,26,05,10,8.70
2008,08,26,05,11,8.70
2008,08,26,05,12,8.70
2008,08,26,05,13,8.70
2008,08,26,05,14,8.60
2008,08,26,05,15,8.60
2008,08,26,05,16,8.60
2008,08,26,05,17,8.60
2008,08,26,05,18,8.50
2008,08,26,05,19,8.50
2008,08,26,05,20,8.50
2008,08,26,05,21,8.50
2008,08,26,05,22,8.50
2008,08,26,05,23,8.50
2008,08,26,05,24,8.50
2008,08,26,05,25,8.50
2008,08,26,05,26,8.50
2008,08,26,05,27,8.50
2008,08,26,05,28,8.50
2008,08,26,05,29,8.50
2008,08,26,05,30,8.50
2008,08,26,05,31,8.50
2008,08,26,05,32,8.50
2008,08,26,05,33,8.50
2008,08,26,05,34,8.50
2008,08,26,05,35,8.50
2008,08,26,05,36,8.50
2008,08,26,05,37,8.50
2008,08,26,05,38,8.50
2008,08,26,05,39,8.40
2008,08,26,05,40,8.40
2008,08,26,05,41,8.40
2008,08,26,05,42,8.40
2008,08,26,05,43,8.40
2008,08,26,05,44,8.50
2008,08,26,05,45,8.50
2008,08,26,05,46,8.50
2008,08,26,05,47,8.50
2008,08,26,05,48,8.50
2008,08,26,05,49,8.50
2008,08,26,05,50,8.50
2008,08,26,05,51,8.50
2008,08,26,05,52,8.50
2008,08,26,05,53,8.50
2008,08,26,05,54,8.50
2008,08,26,05,55,8.50
2008,08,26,05,56,8.50
2008,08,26,05,57,8.50
2008,08,26,05,58,8.50
2008,08,26,05,59,8.50
2008,08,26,06,00,8.60
2008,08,26,06,01,8.60
2008,08,26,06,02,8.60
2008,08,26,06,03,8.60
2008,08,26,06,04,8.60
2008,08,26,06,05,8.60
2008,08,26,06,06,8.60
2008,08,26,06,07,8.60
2008,08,26,06,08,8.60
2008,08,26,06,09,8.60
2008,08,26,06,10,8.60
2008,08,26,06,11,8.60
2008,08,26,06,12,8.60
2008,08,26,06,13,8.60
2008,08,26,06,14,8.60
2008,08,26,06,15,8.60
2008,08,26,06,16,8.60
2008,08,26,06,17,8.60
2008,08,26,06,18,8.60
2008,08,26,06,19,8.60
2008,08,26,06,20,8.60
2008,08,26,06,21,8.60
2008,08,26,06,22,8.50
2008,08,26,06,23,8.50
2008,08,26,06,24,8.40
2008,08,26,06,25,8.40
2008,08,26,06,26,8.40
2008,08,26,06,27,8.40
2008,08,26,06,28,8.40
2008,08,26,06,29,8.40
2008,08,26,06,30,8.40
2008,08,26,06,31,8.40
2008,08,26,06,32,8.40
2008,08,26,06,33,8.40
2008,08,26,06,34,8.40
2008,08,26,06,35,8.40
2008,08,26,06,36,8.30
2008,08,26,06,37,8.30
2008,08,26,06,38,8.30
2008,08,26,06,39,8.30
2008,08,26,06,40,8.30
2008,08,26,06,41,8.20
2008,08,26,06,42,8.20
2008,08,26,06,43,8.20
2008,08,26,06,44,8.10
2008,08,26,06,45,8.10
2008,08,26,06,46,8.10
2008,08,26,06,47,8.10
2008,08,26,06,48,8.10
2008,08,26,06,49,8.10
2008,08,26,06,50,8.10
2008,08,26,06,51,8.10
2008,08,26,06,52,8.10
2008,08,26,06,53,8.10
2008,08,26,06,54,8.10
2008,08,26,06,55,8.10
2008,08,26,06,56,8.10
2008,08,26,06,57,8.10
2008,08,26,06,58,8.10
2008,08,26,06,59,8.10
2008,08,26,07,00,8.10
2008,08,26,07,01,8.20
2008,08,26,07,02,8.20
2008,08,26,07,03,8.20
2008,08,26,07,04,8.20
2008,08,26,07,05,8.20
2008,08,26,07,06,8.30
2008,08,26,07,07,8.30
2008,08,26,07,08,8.30
2008,08,26,07,09,8.30
2008,08,26,07,10,8.40
2008,08,26,07,11,8.40
2008,08,26,07,12,8.40
2008,08,26,07,13,8.50
2008,08,26,07,14,8.50
2008,08,26,07,15,8.60
2008,08,26,07,16,8.60
2008,08,26,07,17,8.70
2008,08,26,07,18,8.70
2008,08,26,07,19,8.70
2008,08,26,07,20,8.80
2008,08,26,07,21,8.80
2008,08,26,07,22,8.80
2008,08,26,07,23,8.80
2008,08,26,07,24,8.90
2008,08,26,07,25,8.90
2008,08,26,07,26,8.90
2008,08,26,07,27,8.90
2008,08,26,07,28,9.00
2008,08,26,07,29,9.00
2008,08,26,07,30,9.10
2008,08,26,07,31,9.10
2008,08,26,07,32,9.10
2008,08,26,07,33,9.20
2008,08,26,07,34,9.20
2008,08,26,07,35,9.20
2008,08,26,07,36,9.20
2008,08,26,07,37,9.30
2008,08,26,07,38,9.30
2008,08,26,07,39,9.30
2008,08,26,07,40,9.40
2008,08,26,07,41,9.40
2008,08,26,07,42,9.40
2008,08,26,07,43,9.40
2008,08,26,07,44,9.50
2008,08,26,07,45,9.50
2008,08,26,07,46,9.60
2008,08,26,07,47,9.60
2008,08,26,07,48,9.70
2008,08,26,07,49,9.70
2008,08,26,07,50,9.80
2008,08,26,07,51,9.80
2008,08,26,07,52,9.80
2008,08,26,07,53,9.90
2008,08,26,07,54,10.00
2008,08,26,07,55,10.00
2008,08,26,07,56,10.10
2008,08,26,07,57,10.20
2008,08,26,07,58,10.20
2008,08,26,07,59,10.30
2008,08,26,08,00,10.30
2008,08,26,08,01,10.40
2008,08,26,08,02,10.40
2008,08,26,08,03,10.50
2008,08,26,08,04,10.50
2008,08,26,08,05,10.50
2008,08,26,08,06,10.60
2008,08,26,08,07,10.70
2008,08,26,08,08,10.70
2008,08,26,08,09,10.80
2008,08,26,08,10,10.80
2008,08,26,08,11,10.80
2008,08,26,08,12,10.90
2008,08,26,08,13,10.90
2008,08,26,08,14,11.00
2008,08,26,08,15,11.00
2008,08,26,08,16,11.10
2008,08,26,08,17,11.10
2008,08,26,08,18,11.20
2008,08,26,08,19,11.20
2008,08,26,08,20,11.20
2008,08,26,08,21,11.30
2008,08,26,08,22,11.30
2008,08,26,08,23,11.40
2008,08,26,08,24,11.40
2008,08,26,08,25,11.50
2008,08,26,08,26,11.50
2008,08,26,08,27,11.60
2008,08,26,08,28,11.60
2008,08,26,08,29,11.70
2008,08,26,08,30,11.80
2008,08,26,08,31,11.90
2008,08,26,08,32,11.90
2008,08,26,08,33,12.00
2008,08,26,08,34,12.10
2008,08,26,08,35,12.20
2008,08,26,08,36,12.30
2008,08,26,08,37,12.40
2008,08,26,08,38,12.50
2008,08,26,08,39,12.60
2008,08,26,08,40,12.60
2008,08,26,08,41,12.70
2008,08,26,08,42,12.80
2008,08,26,08,43,12.90
2008,08,26,08,44,13.00
2008,08,26,08,45,13.00
2008,08,26,08,46,13.10
2008,08,26,08,47,13.20
2008,08,26,08,48,13.20
2008,08,26,08,49,13.20
2008,08,26,08,50,13.30
2008,08,26,08,51,13.30
2008,08,26,08,52,13.40
2008,08,26,08,53,13.40
2008,08,26,08,54,13.50
2008,08,26,08,55,13.60
2008,08,26,08,56,13.70
2008,08,26,08,57,13.80
2008,08,26,08,58,13.80
2008,08,26,08,59,13.80
2008,08,26,09,00,13.90
2008,08,26,09,01,14.00
2008,08,26,09,02,14.00
2008,08,26,09,03,14.10
2008,08,26,09,04,14.20
2008,08,26,09,05,14.30
2008,08,26,09,06,14.30
2008,08,26,09,07,14.50
2008,08,26,09,08,14.60
2008,08,26,09,09,14.70
2008,08,26,09,10,14.80
2008,08,26,09,11,14.80
2008,08,26,09,12,14.90
2008,08,26,09,13,15.00
2008,08,26,09,14,15.00
2008,08,26,09,15,15.00
2008,08,26,09,16,15.00
2008,08,26,09,17,15.10
2008,08,26,09,18,15.20
2008,08,26,09,19,15.30
2008,08,26,09,20,15.20
2008,08,26,09,21,15.10
2008,08,26,09,22,15.00
2008,08,26,09,23,15.00
2008,08,26,09,24,15.00
2008,08,26,09,25,15.00
2008,08,26,09,26,15.00
2008,08,26,09,27,15.00
2008,08,26,09,28,15.00
2008,08,26,09,29,15.10
2008,08,26,09,30,15.20
2008,08,26,09,31,15.20
2008,08,26,09,32,15.20
2008,08,26,09,33,15.20
2008,08,26,09,34,15.20
2008,08,26,09,35,15.30
2008,08,26,09,36,15.30
2008,08,26,09,37,15.40
2008,08,26,09,38,15.40
2008,08,26,09,39,15.50
2008,08,26,09,40,15.60
2008,08,26,09,41,15.70
2008,08,26,09,42,15.70
2008,08,26,09,43,15.60
2008,08,26,09,44,15.60
2008,08,26,09,45,15.60
2008,08,26,09,46,15.50
2008,08,26,09,47,15.40
2008,08,26,09,48,15.30
2008,08,26,09,49,15.30
2008,08,26,09,50,15.40
2008,08,26,09,51,15.50
2008,08,26,09,52,15.50
2008,08,26,09,53,15.50
2008,08,26,09,54,15.50
2008,08,26,09,55,15.50
2008,08,26,09,56,15.40
2008,08,26,09,57,15.40
2008,08,26,09,58,15.30
2008,08,26,09,59,15.30
2008,08,26,10,00,15.30
2008,08,26,10,01,15.30
2008,08,26,10,02,15.30
2008,08,26,10,03,15.30
2008,08,26,10,04,15.30
2008,08,26,10,05,15.30
2008,08,26,10,06,15.30
2008,08,26,10,07,15.30
2008,08,26,10,08,15.30
2008,08,26,10,09,15.30
2008,08,26,10,10,15.20
2008,08,26,10,11,15.20
2008,08,26,10,12,15.20
2008,08,26,10,13,15.20
2008,08,26,10,14,15.00
2008,08,26,10,15,15.00
2008,08,26,10,16,15.00
2008,08,26,10,17,14.90
2008,08,26,10,18,14.80
2008,08,26,10,19,14.70
2008,08,26,10,20,14.60
2008,08,26,10,21,14.50
2008,08,26,10,22,14.40
2008,08,26,10,23,14.30
2008,08,26,10,24,14.20
2008,08,26,10,25,14.10
2008,08,26,10,26,14.10
2008,08,26,10,27,14.10
2008,08,26,10,28,14.10
2008,08,26,10,29,14.10
2008,08,26,10,30,14.10
2008,08,26,10,31,14.20
2008,08,26,10,32,14.10
2008,08,26,10,33,14.10
2008,08,26,10,34,14.10
2008,08,26,10,35,14.10
2008,08,26,10,36,14.10
2008,08,26,10,37,14.20
2008,08,26,10,38,14.20
2008,08,26,10,39,14.30
2008,08,26,10,40,14.30
2008,08,26,10,41,14.40
2008,08,26,10,42,14.40
2008,08,26,10,43,14.50
2008,08,26,10,44,14.60
2008,08,26,10,45,14.60
2008,08,26,10,46,14.60
2008,08,26,10,47,14.60
2008,08,26,10,48,14.60
2008,08,26,10,49,14.60
2008,08,26,10,50,14.70
2008,08,26,10,51,14.80
2008,08,26,10,52,14.90
2008,08,26,10,53,15.00
2008,08,26,10,54,15.00
2008,08,26,10,55,15.00
2008,08,26,10,56,15.10
2008,08,26,10,57,15.20
2008,08,26,10,58,15.30
2008,08,26,10,59,15.30
2008,08,26,11,00,15.30
2008,08,26,11,01,15.30
2008,08,26,11,02,15.40
2008,08,26,11,03,15.40
2008,08,26,11,04,15.60
2008,08,26,11,05,15.50
2008,08,26,11,06,15.40
2008,08,26,11,07,15.30
2008,08,26,11,08,15.30
2008,08,26,11,09,15.30
2008,08,26,11,10,15.30
2008,08,26,11,11,15.30
2008,08,26,11,12,15.20
2008,08,26,11,13,15.10
2008,08,26,11,14,15.00
2008,08,26,11,15,15.00
2008,08,26,11,16,15.00
2008,08,26,11,17,15.00
2008,08,26,11,18,15.00
2008,08,26,11,19,15.10
2008,08,26,11,20,15.20
2008,08,26,11,21,15.20
2008,08,26,11,22,15.30
2008,08,26,11,23,15.30
2008,08,26,11,24,15.20
2008,08,26,11,25,15.10
2008,08,26,11,26,15.00
2008,08,26,11,27,15.00
2008,08,26,11,28,14.90
2008,08,26,11,29,14.80
2008,08,26,11,30,14.80
2008,08,26,11,31,14.70
2008,08,26,11,32,14.70
2008,08,26,11,33,14.70
2008,08,26,11,34,14.60
2008,08,26,11,35,14.60
2008,08,26,11,36,14.60
2008,08,26,11,37,14.60
2008,08,26,11,38,14.60
2008,08,26,11,39,14.60
2008,08,26,11,40,14.60
2008,08,26,11,41,14.60
2008,08,26,11,42,14.60
2008,08,26,11,43,14.60
2008,08,26,11,44,14.50
2008,08,26,11,45,14.50
2008,08,26,11,46,14.40
2008,08,26,11,47,14.40
2008,08,26,11,48,14.40
2008,08,26,11,49,14.30
2008,08,26,11,50,14.30
2008,08,26,11,51,14.30
2008,08,26,11,52,14.30
2008,08,26,11,53,14.30
2008,08,26,11,54,14.30
2008,08,26,11,55,14.30
2008,08,26,11,56,14.40
2008,08,26,11,57,14.40
2008,08,26,11,58,14.40
2008,08,26,11,59,14.40
2008,08,26,12,00,14.40
2008,08,26,12,01,14.40
2008,08,26,12,02,14.40
2008,08,26,12,03,14.40
2008,08,26,12,04,14.40
2008,08,26,12,05,14.40
2008,08,26,12,06,14.40
2008,08,26,12,07,14.40
2008,08,26,12,08,14.40
2008,08,26,12,09,14.50
2008,08,26,12,10,14.50
2008,08,26,12,11,14.50
2008,08,26,12,12,14.50
2008,08,26,12,13,14.40
2008,08,26,12,14,14.40
2008,08,26,12,15,14.30
2008,08,26,12,16,14.30
2008,08,26,12,17,14.30
2008,08,26,12,18,14.30
2008,08,26,12,19,14.30
2008,08,26,12,20,14.30
2008,08,26,12,21,14.30
2008,08,26,12,22,14.30
2008,08,26,12,23,14.40
2008,08,26,12,24,14.40
2008,08,26,12,25,14.40
2008,08,26,12,26,14.40
2008,08,26,12,27,14.40
2008,08,26,12,28,14.40
2008,08,26,12,29,14.40
2008,08,26,12,30,14.40
2008,08,26,12,31,14.40
2008,08,26,12,32,14.40
2008,08,26,12,33,14.40
2008,08,26,12,34,14.40
2008,08,26,12,35,14.40
2008,08,26,12,36,14.40
2008,08,26,12,37,14.40
2008,08,26,12,38,14.40
2008,08,26,12,39,14.50
2008,08,26,12,40,14.50
2008,08,26,12,41,14.50
2008,08,26,12,42,14.50
2008,08,26,12,43,14.60
2008,08,26,12,44,14.60
2008,08,26,12,45,14.60
2008,08,26,12,46,14.60
2008,08,26,12,47,14.60
2008,08,26,12,48,14.60
2008,08,26,12,49,14.60
2008,08,26,12,50,14.60
2008,08,26,12,51,14.60
2008,08,26,12,52,14.70
2008,08,26,12,53,14.70
2008,08,26,12,54,14.70
2008,08,26,12,55,14.70
2008,08,26,12,56,14.70
2008,08,26,12,57,14.70
2008,08,26,12,58,14.70
2008,08,26,12,59,14.70
2008,08,26,13,00,14.70
2008,08,26,13,01,14.70
2008,08,26,13,02,14.70
2008,08,26,13,03,14.70
2008,08,26,13,04,14.70
2008,08,26,13,05,14.70
2008,08,26,13,06,14.70
2008,08,26,13,07,14.80
2008,08,26,13,08,14.80
2008,08,26,13,09,14.80
2008,08,26,13,10,14.90
2008,08,26,13,11,15.00
2008,08,26,13,12,15.00
2008,08,26,13,13,15.00
2008,08,26,13,14,15.00
2008,08,26,13,15,15.00
2008,08,26,13,16,15.00
2008,08,26,13,17,15.00
2008,08,26,13,18,15.00
2008,08,26,13,19,15.00
2008,08,26,13,20,15.00
2008,08,26,13,21,15.00
2008,08,26,13,22,15.00
2008,08,26,13,23,15.00
2008,08,26,13,24,15.00
2008,08,26,13,25,15.00
2008,08,26,13,26,15.00
2008,08,26,13,27,15.00
2008,08,26,13,28,15.00
2008,08,26,13,29,15.00
2008,08,26,13,30,15.00
2008,08,26,13,31,15.00
2008,08,26,13,32,15.00
2008,08,26,13,33,15.00
2008,08,26,13,34,15.10
2008,08,26,13,35,15.10
2008,08,26,13,36,15.20
2008,08,26,13,37,15.20
2008,08,26,13,38,15.20
2008,08,26,13,39,15.30
2008,08,26,13,40,15.30
2008,08,26,13,41,15.40
2008,08,26,13,42,15.40
2008,08,26,13,43,15.50
2008,08,26,13,44,15.50
2008,08,26,13,45,15.50
2008,08,26,13,46,15.50
2008,08,26,13,47,15.50
2008,08,26,13,48,15.50
2008,08,26,13,49,15.50
2008,08,26,13,50,15.60
2008,08,26,13,51,15.60
2008,08,26,13,52,15.70
2008,08,26,13,53,15.80
2008,08,26,13,54,15.80
2008,08,26,13,55,15.90
2008,08,26,13,56,15.90
2008,08,26,13,57,16.00
2008,08,26,13,58,16.00
2008,08,26,13,59,16.10
2008,08,26,14,00,16.10
2008,08,26,14,01,16.10
2008,08,26,14,02,16.20
2008,08,26,14,03,16.20
2008,08,26,14,04,16.20
2008,08,26,14,05,16.30
2008,08,26,14,06,16.30
2008,08,26,14,07,16.40
2008,08,26,14,08,16.40
2008,08,26,14,09,16.40
2008,08,26,14,10,16.40
2008,08,26,14,11,16.40
2008,08,26,14,12,16.40
2008,08,26,14,13,16.40
2008,08,26,14,14,16.40
2008,08,26,14,15,16.50
2008,08,26,14,16,16.50
2008,08,26,14,17,16.50
2008,08,26,14,18,16.50
2008,08,26,14,19,16.50
2008,08,26,14,20,16.50
2008,08,26,14,21,16.50
2008,08,26,14,22,16.60
2008,08,26,14,23,16.60
2008,08,26,14,24,16.60
2008,08,26,14,25,16.60
2008,08,26,14,26,16.60
2008,08,26,14,27,16.60
2008,08,26,14,28,16.60
2008,08,26,14,29,16.60
2008,08,26,14,30,16.50
2008,08,26,14,31,16.50
2008,08,26,14,32,16.40
2008,08,26,14,33,16.40
2008,08,26,14,34,16.40
2008,08,26,14,35,16.30
2008,08,26,14,36,16.30
2008,08,26,14,37,16.30
2008,08,26,14,38,16.30
2008,08,26,14,39,16.20
2008,08,26,14,40,16.20
2008,08,26,14,41,16.20
2008,08,26,14,42,16.10
2008,08,26,14,43,16.10
2008,08,26,14,44,16.10
2008,08,26,14,45,16.10
2008,08,26,14,46,16.00
2008,08,26,14,47,16.00
2008,08,26,14,48,15.90
2008,08,26,14,49,15.90
2008,08,26,14,50,15.90
2008,08,26,14,51,15.80
2008,08,26,14,52,15.80
2008,08,26,14,53,15.80
2008,08,26,14,54,15.80
2008,08,26,14,55,15.80
2008,08,26,14,56,15.80
2008,08,26,14,57,15.80
2008,08,26,14,58,15.80
2008,08,26,14,59,15.80
2008,08,26,15,00,15.80
2008,08,26,15,01,15.80
2008,08,26,15,02,15.80
2008,08,26,15,03,15.80
2008,08,26,15,04,15.80
2008,08,26,15,05,15.80
2008,08,26,15,06,15.80
2008,08,26,15,07,15.80
2008,08,26,15,08,15.80
2008,08,26,15,09,15.70
2008,08,26,15,10,15.70
2008,08,26,15,11,15.70
2008,08,26,15,12,15.70
2008,08,26,15,13,15.70
2008,08,26,15,14,15.70
2008,08,26,15,15,15.70
2008,08,26,15,16,15.70
2008,08,26,15,17,15.70
2008,08,26,15,18,15.70
2008,08,26,15,19,15.70
2008,08,26,15,20,15.70
2008,08,26,15,21,15.70
2008,08,26,15,22,15.70
2008,08,26,15,23,15.70
2008,08,26,15,24,15.60
2008,08,26,15,25,15.60
2008,08,26,15,26,15.60
2008,08,26,15,27,15.50
2008,08,26,15,28,15.50
2008,08,26,15,29,15.40
2008,08,26,15,30,15.40
2008,08,26,15,31,15.30
2008,08,26,15,32,15.30
2008,08,26,15,33,15.30
2008,08,26,15,34,15.20
2008,08,26,15,35,15.20
2008,08,26,15,36,15.20
2008,08,26,15,37,15.20
2008,08,26,15,38,15.20
2008,08,26,15,39,15.20
2008,08,26,15,40,15.10
2008,08,26,15,41,15.10
2008,08,26,15,42,15.10
2008,08,26,15,43,15.00
2008,08,26,15,44,15.00
2008,08,26,15,45,15.00
2008,08,26,15,46,15.00
2008,08,26,15,47,15.00
2008,08,26,15,48,15.00
2008,08,26,15,49,15.00
2008,08,26,15,50,15.00
2008,08,26,15,51,15.00
2008,08,26,15,52,15.00
2008,08,26,15,53,15.00
2008,08,26,15,54,15.00
2008,08,26,15,55,15.00
2008,08,26,15,56,15.00
2008,08,26,15,57,15.00
2008,08,26,15,58,15.00
2008,08,26,15,59,15.00
2008,08,26,16,00,15.00
2008,08,26,16,01,15.00
2008,08,26,16,02,15.00
2008,08,26,16,03,15.00
2008,08,26,16,04,15.00
2008,08,26,16,05,15.00
2008,08,26,16,06,15.00
2008,08,26,16,07,15.00
2008,08,26,16,08,15.00
2008,08,26,16,09,15.00
2008,08,26,16,10,14.90
2008,08,26,16,11,15.00
2008,08,26,16,12,15.00
2008,08,26,16,13,15.00
2008,08,26,16,14,15.00
2008,08,26,16,15,15.00
2008,08,26,16,16,15.00
2008,08,26,16,17,15.00
2008,08,26,16,18,14.90
2008,08,26,16,19,14.90
2008,08,26,16,20,15.00
2008,08,26,16,21,14.90
2008,08,26,16,22,14.90
2008,08,26,16,23,14.90
2008,08,26,16,24,14.90
2008,08,26,16,25,14.90
2008,08,26,16,26,14.90
2008,08,26,16,27,14.90
2008,08,26,16,28,14.80
2008,08,26,16,29,14.80
2008,08,26,16,30,14.80
2008,08,26,16,31,14.70
2008,08,26,16,32,14.70
2008,08,26,16,33,14.70
2008,08,26,16,34,14.70
2008,08,26,16,35,14.60
2008,08,26,16,36,14.60
2008,08,26,16,37,14.60
2008,08,26,16,38,14.60
2008,08,26,16,39,14.60
2008,08,26,16,40,14.50
2008,08,26,16,41,14.50
2008,08,26,16,42,14.50
2008,08,26,16,43,14.40
2008,08,26,16,44,14.40
2008,08,26,16,45,14.40
2008,08,26,16,46,14.40
2008,08,26,16,47,14.40
2008,08,26,16,48,14.40
2008,08,26,16,49,14.40
2008,08,26,16,50,14.40
2008,08,26,16,51,14.40
2008,08,26,16,52,14.50
2008,08,26,16,53,14.50
2008,08,26,16,54,14.40
2008,08,26,16,55,14.50
2008,08,26,16,56,14.50
2008,08,26,16,57,14.60
2008,08,26,16,58,14.60
2008,08,26,16,59,14.70
2008,08,26,17,00,14.70
2008,08,26,17,01,14.70
2008,08,26,17,02,14.80
2008,08,26,17,03,14.90
2008,08,26,17,04,14.90
2008,08,26,17,05,15.00
2008,08,26,17,06,15.00
2008,08,26,17,07,15.00
2008,08,26,17,08,15.00
2008,08,26,17,09,15.00
2008,08,26,17,10,15.00
2008,08,26,17,11,15.00
2008,08,26,17,12,15.00
2008,08,26,17,13,15.00
2008,08,26,17,14,15.00
2008,08,26,17,15,15.00
2008,08,26,17,16,15.00
2008,08,26,17,17,15.00
2008,08,26,17,18,15.00
2008,08,26,17,19,15.00
2008,08,26,17,20,15.00
2008,08,26,17,21,15.00
2008,08,26,17,22,15.00
2008,08,26,17,23,15.00
2008,08,26,17,24,15.00
2008,08,26,17,25,15.00
2008,08,26,17,26,15.00
2008,08,26,17,27,15.00
2008,08,26,17,28,15.00
2008,08,26,17,29,15.00
2008,08,26,17,30,15.00
2008,08,26,17,31,15.00
2008,08,26,17,32,15.00
2008,08,26,17,33,15.00